User: anonymous   Login
Location: Unspecified
(0.0000°N, 0.0000°E)
Time: 19:42:07
(UTC+00:00)
Language:

FALCON 9 R/B - Orbit

View from above orbital plane
View from above orbital plane
View from above satellite
View from above satellite

Ground track
Ground track

The orbit data is extracted from the following two-line orbital elements,

1 41590U 16038C   22275.14757222 -.00000187  00000-0  74753-3 0  9991
2 41590  23.2292 259.3282 8139940 152.3076 300.0947  1.18377289 27154
Epoch (UTC): 02 October 2022 03:32:30
Eccentricity: 0.8139940
inclination: 23.2292°
perigee height: 643 km
apogee height: 62095 km
right ascension of ascending node: 259.3282°
argument of perigee: 152.3076°
revolutions per day: 1.18377289
mean anomaly at epoch: 300.0947°
orbit number at epoch: 2715

The dashed part of the orbit path shows where the satellite is in the earth's shadow,  

DLR